Preview of NWS' New Version of Forecast
This preview is not operational and should not be used for support decisions.

Regional Weather Roundup (RWR)

Issued by National Weather Service (NWS)

                            
000
ASUS46 KPQR 212310
RWROR 

OREGON REGIONAL WEATHER ROUNDUP
NATIONAL WEATHER SERVICE PORTLAND OR
300 PM PST THU FEB 21 2019

NOTE: "FAIR" INDICATES FEW OR NO CLOUDS BELOW 12,000 FEET WITH
NO SIGNIFICANT WEATHER AND/OR OBSTRUCTIONS TO VISIBILITY.

ORZ001>013-220000-
NORTHWEST OREGON

  
CITY           SKY/WX    TMP DP  RH WIND       PRES   REMARKS
ASTORIA        SUNNY     47  30  51 N8        30.10S                  
TILLAMOOK      SUNNY     46  32  57 NW8       30.11S                  
NEWPORT        MOSUNNY   46  34  61 NW10      30.12S                  
PORTLAND       MOSUNNY   48  27  44 N5        30.11F                  
VANCOUVER WA   SUNNY     46  29  51 SW5       30.10F                  
SCAPPOOSE      SUNNY     49  27  42 CALM      30.10F                  
HILLSBORO      SUNNY     48  23  37 E6        30.10S                  
AURORA         MOSUNNY   47  26  44 CALM      30.10F                  
MCMINNVILLE    CLOUDY    48  28  46 N7        30.10S                  
SALEM          SUNNY     49  29  46 N9        30.09S                  
CORVALLIS      SUNNY     47  27  45 VRB6      30.10S                  
EUGENE         MOSUNNY   46  31  55 NE10      30.09S                  
$$

ORZ021-028-220000-
SOUTHWEST OREGON

  
CITY           SKY/WX    TMP DP  RH WIND       PRES   REMARKS
NORTH BEND     SUNNY     47  37  68 N14       30.09S                  
BROOKINGS      SUNNY     51  24  34 N9        29.98S                  
ROSEBURG       SUNNY     45  28  51 N10       30.05S                  
GRANTS PASS    CLOUDY    43  28  56 N13       30.03                   
MEDFORD        MOSUNNY   41  25  53 S5        29.99S                  
$$

ORZ014>016-041-220000-
COLUMBIA GORGE

  
CITY           SKY/WX    TMP DP  RH WIND       PRES   REMARKS
TROUTDALE      SUNNY     48  27  44 E9        30.10F                  
HOOD RIVER     SUNNY     41  25  52 CALM      30.10F                  
THE DALLES     SUNNY     38  28  67 E5        30.13F                  
$$

ORZ029>031-041-044-049-050-061>064-502-503-505>511-220000-
EASTERN OREGON

  
CITY           SKY/WX    TMP DP  RH WIND       PRES   REMARKS
MADRAS         NOT AVBL                                               
REDMOND        CLOUDY    32  20  61 N8        29.99R                  
BEND           CLOUDY    30  18  59 N7        29.98S                  
PRINEVILLE     CLOUDY    30  21  69 NW14      29.98  WCI  20          
KLAMATH FALLS  MOSUNNY   31  14  49 VRB6      29.88R                  
LAKEVIEW       FLURRIES  28  16  60 N15       29.86R WCI  16          
HERMISTON      SUNNY     33  24  69 NE6       30.13R                  
PENDLETON      MOSUNNY   31  22  69 NW6       30.07S                  
JOHN DAY       CLOUDY    29  20  68 W9        29.93                   
MEACHAM        CLOUDY    21  18  88 VRB3      29.95R FOG              
LA GRANDE      CLOUDY    29  21  72 W17       29.99R WCI  17          
BAKER CITY     PTSUNNY   32  19  58 N20G25    29.93R WCI  20          
BURNS          CLOUDY    29  13  51 NW13      29.86R WCI  19          
ROME             N/A     31  18  58 N14G22    29.82R WCI  21          
ONTARIO        MOSUNNY   41  22  46 NW10      29.93S                  
$$